| time (UTC) | temp F | wind direction | speed knots | gust knots | rain 1hr in | rain 24hr in | rain mn in | humidity % | barometer mb |
| 20260505082544 | 100 | 0 | 0.0 | 0.0 | 0.00 | 0.00 | 0.00 | 39 | 974.0 |
| 20260505081519 | 101 | 0 | 0.0 | 0.0 | 0.00 | 0.00 | 0.00 | 38 | 974.0 |
| 20260505080454 | 102 | 0 | 0.0 | 0.0 | 0.00 | 0.00 | 0.00 | 37 | 974.0 |
| 20260505075430 | 99 | 0 | 0.0 | 0.0 | 0.00 | 0.00 | 0.00 | 41 | 974.0 |
| 20260505074402 | 99 | 0 | 0.0 | 0.0 | 0.00 | 0.00 | 0.00 | 40 | 975.0 |
| 20260505073337 | 99 | 0 | 0.0 | 0.0 | 0.00 | 0.00 | 0.00 | 40 | 975.0 |
| 20260505072312 | 99 | 0 | 0.0 | 0.0 | 0.00 | 0.00 | 0.00 | 39 | 975.0 |
| 20260505071248 | 100 | 0 | 0.0 | 0.0 | 0.00 | 0.00 | 0.00 | 38 | 975.0 |
| 20260505070223 | 101 | 0 | 0.0 | 0.0 | 0.00 | 0.00 | 0.00 | 38 | 975.0 |
| 20260505065207 | 102 | 0 | 0.0 | 0.0 | 0.00 | 0.00 | 0.00 | 38 | 976.0 |
| 20260505065157 | 102 | 0 | 0.0 | 0.0 | 0.00 | 0.00 | 0.00 | 38 | 976.0 |
| 20260505064132 | 99 | 0 | 0.0 | 0.0 | 0.00 | 0.00 | 0.00 | 41 | 976.0 |
| 20260505063109 | 98 | 0 | 0.0 | 0.0 | 0.00 | 0.00 | 0.00 | 42 | 976.0 |
| 20260505063107 | 98 | 0 | 0.0 | 0.0 | 0.00 | 0.00 | 0.00 | 42 | 976.0 |
| 20260505062038 | 101 | 0 | 0.0 | 0.0 | 0.00 | 0.00 | 0.00 | 40 | 976.0 |
| 20260505061013 | 100 | 0 | 0.0 | 0.0 | 0.00 | 0.00 | 0.00 | 40 | 977.0 |
| 20260505055948 | 100 | 0 | 0.0 | 0.0 | 0.00 | 0.00 | 0.00 | 42 | 977.0 |
| 20260505054923 | 100 | 0 | 0.0 | 0.0 | 0.00 | 0.00 | 0.00 | 41 | 977.0 |
| 20260505053853 | 100 | 0 | 0.0 | 0.0 | 0.00 | 0.00 | 0.00 | 40 | 977.0 |
| 20260505052828 | 99 | 0 | 0.0 | 0.0 | 0.00 | 0.00 | 0.00 | 42 | 978.0 |
| 20260505051803 | 99 | 0 | 0.0 | 0.0 | 0.00 | 0.00 | 0.00 | 42 | 978.0 |
| 20260505050738 | 98 | 0 | 0.0 | 0.0 | 0.00 | 0.00 | 0.00 | 43 | 978.0 |
| 20260505041535 | 94 | 0 | 0.0 | 0.0 | 0.00 | 0.00 | 0.00 | 46 | 979.0 |
| 20260505040510 | 94 | 0 | 0.0 | 0.0 | 0.00 | 0.00 | 0.00 | 47 | 979.0 |
| 20260505035446 | 95 | 0 | 0.0 | 0.0 | 0.00 | 0.00 | 0.00 | 48 | 979.0 |
| 20260505034421 | 96 | 0 | 0.0 | 0.0 | 0.00 | 0.00 | 0.00 | 46 | 979.0 |
| 20260505033357 | 94 | 0 | 0.0 | 0.0 | 0.00 | 0.00 | 0.00 | 48 | 979.0 |
| 20260505032333 | 94 | 0 | 0.0 | 0.0 | 0.00 | 0.00 | 0.00 | 49 | 980.0 |
| 20260505031308 | 94 | 0 | 0.0 | 0.0 | 0.00 | 0.00 | 0.00 | 49 | 980.0 |
| 20260505030244 | 95 | 0 | 0.0 | 0.0 | 0.00 | 0.00 | 0.00 | 49 | 980.0 |
| 20260505025220 | 93 | 0 | 0.0 | 0.0 | 0.00 | 0.00 | 0.00 | 51 | 980.0 |
| 20260505024156 | 93 | 0 | 0.0 | 0.0 | 0.00 | 0.00 | 0.00 | 49 | 980.0 |
| 20260505023131 | 93 | 0 | 0.0 | 0.0 | 0.00 | 0.00 | 0.00 | 51 | 980.0 |
| 20260505022107 | 93 | 0 | 0.0 | 0.0 | 0.00 | 0.00 | 0.00 | 50 | 980.0 |
| 20260505021043 | 92 | 0 | 0.0 | 0.0 | 0.00 | 0.00 | 0.00 | 51 | 980.0 |
| 20260505020019 | 92 | 0 | 0.0 | 0.0 | 0.00 | 0.00 | 0.00 | 51 | 979.0 |
| 20260505014954 | 90 | 0 | 0.0 | 0.0 | 0.00 | 0.00 | 0.00 | 54 | 979.0 |
| 20260505013930 | 92 | 0 | 0.0 | 0.0 | 0.00 | 0.00 | 0.00 | 52 | 979.0 |
| 20260505012906 | 90 | 0 | 0.0 | 0.0 | 0.00 | 0.00 | 0.00 | 55 | 979.0 |
| 20260505011841 | 91 | 0 | 0.0 | 0.0 | 0.00 | 0.00 | 0.00 | 55 | 979.0 |
| 20260505010817 | 90 | 0 | 0.0 | 0.0 | 0.00 | 0.00 | 0.00 | 56 | 979.0 |
| 20260505005757 | 91 | 0 | 0.0 | 0.0 | 0.00 | 0.00 | 0.00 | 54 | 979.0 |
| 20260505005753 | 91 | 0 | 0.0 | 0.0 | 0.00 | 0.00 | 0.00 | 54 | 979.0 |
| 20260505004729 | 89 | 0 | 0.0 | 0.0 | 0.00 | 0.00 | 0.00 | 57 | 979.0 |
| 20260505003704 | 88 | 0 | 0.0 | 0.0 | 0.00 | 0.00 | 0.00 | 58 | 979.0 |
| 20260505002640 | 88 | 0 | 0.0 | 0.0 | 0.00 | 0.00 | 0.00 | 59 | 979.0 |
| 20260505001616 | 87 | 0 | 0.0 | 0.0 | 0.00 | 0.00 | 0.00 | 61 | 979.0 |
| 20260505000551 | 88 | 0 | 0.0 | 0.0 | 0.00 | 0.00 | 0.00 | 58 | 979.0 |
| 20260504235527 | 87 | 0 | 0.0 | 0.0 | 0.00 | 0.00 | 0.00 | 61 | 979.0 |
| 20260504234502 | 88 | 0 | 0.0 | 0.0 | 0.00 | 0.00 | 0.00 | 59 | 978.0 |
| 20260504233438 | 88 | 0 | 0.0 | 0.0 | 0.00 | 0.00 | 0.00 | 60 | 978.0 |
| 20260504232414 | 87 | 0 | 0.0 | 0.0 | 0.00 | 0.00 | 0.00 | 61 | 978.0 |
| 20260504231350 | 86 | 0 | 0.0 | 0.0 | 0.00 | 0.00 | 0.00 | 62 | 978.0 |
| 20260504230325 | 85 | 0 | 0.0 | 0.0 | 0.00 | 0.00 | 0.00 | 63 | 978.0 |
| 20260504225301 | 87 | 0 | 0.0 | 0.0 | 0.00 | 0.00 | 0.00 | 60 | 978.0 |
| 20260504224237 | 87 | 0 | 0.0 | 0.0 | 0.00 | 0.00 | 0.00 | 61 | 977.0 |
| 20260504223213 | 87 | 0 | 0.0 | 0.0 | 0.00 | 0.00 | 0.00 | 59 | 977.0 |
| 20260504222146 | 88 | 0 | 0.0 | 0.0 | 0.00 | 0.00 | 0.00 | 58 | 977.0 |
| 20260504221127 | 86 | 0 | 0.0 | 0.0 | 0.00 | 0.00 | 0.00 | 62 | 977.0 |
| 20260504221122 | 86 | 0 | 0.0 | 0.0 | 0.00 | 0.00 | 0.00 | 62 | 977.0 |
| 20260504220058 | 85 | 0 | 0.0 | 0.0 | 0.00 | 0.00 | 0.00 | 63 | 977.0 |
| 20260504215034 | 87 | 0 | 0.0 | 0.0 | 0.00 | 0.00 | 0.00 | 60 | 977.0 |
| 20260504214010 | 87 | 0 | 0.0 | 0.0 | 0.00 | 0.00 | 0.00 | 59 | 977.0 |
| 20260504212946 | 87 | 0 | 0.0 | 0.0 | 0.00 | 0.00 | 0.00 | 59 | 977.0 |
| 20260504211921 | 88 | 0 | 0.0 | 0.0 | 0.00 | 0.00 | 0.00 | 58 | 977.0 |
| 20260504210857 | 88 | 0 | 0.0 | 0.0 | 0.00 | 0.00 | 0.00 | 57 | 977.0 |
| 20260504205833 | 88 | 0 | 0.0 | 0.0 | 0.00 | 0.00 | 0.00 | 58 | 977.0 |
| 20260504204808 | 88 | 0 | 0.0 | 0.0 | 0.00 | 0.00 | 0.00 | 58 | 977.0 |
| 20260504203743 | 89 | 0 | 0.0 | 0.0 | 0.00 | 0.00 | 0.00 | 57 | 977.0 |
| 20260504202719 | 88 | 0 | 0.0 | 0.0 | 0.00 | 0.00 | 0.00 | 59 | 978.0 |
| 20260504201655 | 87 | 0 | 0.0 | 0.0 | 0.00 | 0.00 | 0.00 | 59 | 978.0 |
| 20260504200630 | 88 | 0 | 0.0 | 0.0 | 0.00 | 0.00 | 0.00 | 57 | 978.0 |
| 20260504195606 | 88 | 0 | 0.0 | 0.0 | 0.00 | 0.00 | 0.00 | 58 | 978.0 |
| 20260504194542 | 89 | 0 | 0.0 | 0.0 | 0.00 | 0.00 | 0.00 | 58 | 978.0 |
| 20260504193638 | 88 | 0 | 0.0 | 0.0 | 0.00 | 0.00 | 0.00 | 58 | 978.0 |
| 20260504193517 | 88 | 0 | 0.0 | 0.0 | 0.00 | 0.00 | 0.00 | 58 | 978.0 |
| 20260504192453 | 89 | 0 | 0.0 | 0.0 | 0.00 | 0.00 | 0.00 | 56 | 978.0 |
| 20260504191429 | 88 | 0 | 0.0 | 0.0 | 0.00 | 0.00 | 0.00 | 57 | 978.0 |
| 20260504190405 | 89 | 0 | 0.0 | 0.0 | 0.00 | 0.00 | 0.00 | 57 | 978.0 |
| 20260504185341 | 89 | 0 | 0.0 | 0.0 | 0.00 | 0.00 | 0.00 | 57 | 978.0 |
| 20260504184317 | 89 | 0 | 0.0 | 0.0 | 0.00 | 0.00 | 0.00 | 56 | 978.0 |
| 20260504183252 | 88 | 0 | 0.0 | 0.0 | 0.00 | 0.00 | 0.00 | 57 | 978.0 |
| 20260504182230 | 89 | 0 | 0.0 | 0.0 | 0.00 | 0.00 | 0.00 | 56 | 978.0 |
| 20260504182228 | 89 | 0 | 0.0 | 0.0 | 0.00 | 0.00 | 0.00 | 56 | 978.0 |
| 20260504181203 | 89 | 0 | 0.0 | 0.0 | 0.00 | 0.00 | 0.00 | 56 | 978.0 |
| 20260504180139 | 89 | 0 | 0.0 | 0.0 | 0.00 | 0.00 | 0.00 | 56 | 978.0 |
| 20260504175115 | 88 | 0 | 0.0 | 0.0 | 0.00 | 0.00 | 0.00 | 57 | 978.0 |
| 20260504174051 | 88 | 0 | 0.0 | 0.0 | 0.00 | 0.00 | 0.00 | 57 | 979.0 |
| 20260504173026 | 87 | 0 | 0.0 | 0.0 | 0.00 | 0.00 | 0.00 | 59 | 979.0 |
| 20260504172002 | 87 | 0 | 0.0 | 0.0 | 0.00 | 0.00 | 0.00 | 60 | 978.0 |
| 20260504170938 | 88 | 0 | 0.0 | 0.0 | 0.00 | 0.00 | 0.00 | 60 | 978.0 |
| 20260504150446 | 94 | 0 | 0.0 | 0.0 | 0.00 | 0.00 | 0.00 | 38 | 976.0 |
| 20260504141244 | 95 | 0 | 0.0 | 0.0 | 0.00 | 0.00 | 0.00 | 35 | 975.0 |
| 20260504140219 | 96 | 0 | 0.0 | 0.0 | 0.00 | 0.00 | 0.00 | 35 | 975.0 |
| 20260504130725 | 97 | 0 | 0.0 | 0.0 | 0.00 | 0.00 | 0.00 | 39 | 974.0 |
| 20260504110228 | 97 | 0 | 0.0 | 0.0 | 0.00 | 0.00 | 0.00 | 36 | 972.0 |